DELTA 1 DEB

Satellite information

Favourite Embed

Satellite Type and Status

DEBRISIN ORBIT

Key statistics

Satellite DELTA 1 DEB at a glance.

Uptime

18289

Days in orbit

Revolutions

≈ 13.5

Per day

Orbit

SSO

Sun Synchronous Orbit

Inclination

99.8

Latest

Satellite identification and parameters

Extended collection of information and parameters for DELTA 1 DEB.

Object identification

Identified? True

Debris? True

Object name: DELTA 1 DEB

International designator: 1975-052KB

Object number (NORAD): 26701

Object ID (CCSDS): 26701

Country: UNITED STATES OF AMERICA (US)

Current information (Y/N): Y

RCS size: SMALL

Orbital parameters

Period: 106.276 minutes

Inclination: 99.7974 deg

SMA: 7432.211 km

Apoapsis: 1247.477 km

Periapsis: 860.675 km

RAAN: 56.7076 deg

Eccentricy: 0.026022

Argument of periapsis: 49.1881 deg

Mean anomaly: 4.9699 deg

Mean motion: 13.54957624 rev/day

Mean motion (dot): 0.00000431 rev/day2

B* drag term: 0.00055568 1/REarth

Two-line elements (TLE)

Creation date: July 7, 2025, 6:34 p.m.

Reference frame: TEME

Reference center: EARTH

Epoch: July 7, 2025, 2:11 p.m. UTC

TLE line 0: 0 DELTA 1 DEB

TLE line 1: 1 26701U 75052KB 25188.59145181 .00000431 00000-0 55568-3 0 9993

TLE line 2: 2 26701 99.7974 56.7076 0260220 49.1881 4.9699 13.54957624215468

Live tracking on map

Real-time ground track for satellite DELTA 1 DEB.

In-orbit conjunctions

A list of the most updated potential collisions computed for object DELTA 1 DEB.

Target Orbit TCA Probability of collision Miss distance Type
CZ-6A DEB SSO 2024-11-17 08:56:54 0.0001007374 126.0 (m) DEBRIS
FENGYUN 1C DEB SSO 2024-08-24 22:00:09 0.0001009419 626.0 (m) DEBRIS

Associated space launch

Experimental meteorological satellite

DELTA 1 DEB was lifted into orbit during the mission ‘Delta 2910 | Nimbus 6’, on board a Delta 2910 space rocket.

The launch took place on June 12, 1975, 8:12 a.m. from Space Launch Complex 2W.

For more information about the launch, click the button.

Launch to space Delta 2910 | Nimbus 6
Delta 2910 | Nimbus 6

Agency: N/A

Status: Launch Successful

Launch date: June 12, 1975, 8:12 a.m. UTC

Rocket: Delta 2910

Launch pad: Space Launch Complex 2W

Location: Vandenberg SFB, CA, USA

...

Latest news about this satellite

There are no fresh news available about this satellite. Check back as we update our databases every day.


Newsletter sign-up

Weekly statistics, charts and insights to help you stay on top of the space industry.